Погода в Гальбштадте

Россия / Алтайский край     53°13′36″N   78°59′29″E
темп.,
°C
ветер,
м/с
пор.,
м/с
влажн.,
%
обл.,
%
осадки,
мм/ч
давл.,
гПа
погр.,
м
18 мая, вт
вт1801:00+19юз236297 1.4 101369
04:00+18юз410625 0.1 1011213
07:00+19зюз613585 0.1 1009317
10:00+24зсз69404 0.0 1008520
13:00+28зсз58326 0.0 10081326
16:00+29сз71030100 0.0 10072583
19:00+27сз710315 0.0 10052464
22:00+21вюв335634 0.0 100663
19 мая, ср
ср1901:00+17ссз247063 0.1 100692
04:00+16сз498167 0.0 1006367
07:00+14с698588 0.0 1007589
10:00+12ссв7878100 0.1 1010752
13:00+12ссв7864100 0.2 10111117
16:00+14ссв9951100 0.1 10121279
19:00+14с684274 0.1 10131908
22:00+11с7114335 0.0 1014641
20 мая, чт
чт2001:00+8с410485 0.0 1015307
04:00+7с4105397 0.0 1015300
07:00+6с595241 0.0 1017576
10:00+8с811385 0.0 10192086
13:00+10с8102914 0.0 10202322
16:00+11с782766 0.0 10202294
19:00+11с5729100 0.0 10211998
22:00+9сз3538100 0.0 1022270
21 мая, пт
пт2101:00+8з1140100 0.0 102212
04:00+7зюз5552100 0.0 1021876
07:00+6ю5780100 0.3 1021424
10:00+8ю566898 0.0 1021565
13:00+12ю455599 0.0 10211066
16:00+16ююз343899 0.0 10201512
19:00+16юз234299 0.0 10201061
22:00+13ю345147 0.0 102063
22 мая, сб
сб2201:00+12ю475967 0.0 1019129
04:00+12юз4868100 0.4 1019209
07:00+12юз387266 0.4 1018199
10:00+19сз3560100 0.1 1017443
13:00+26сз57435 0.1 10161398
16:00+27с7103360 0.0 10162527
19:00+27с69395 0.0 10172001
22:00+21св336160 0.0 101841